GW5858 Weather Reports


Display with metric or nautical units.
time (UTC)temp
F
wind
direction
speed
MPH
gust
MPH
rain 1hr
in
rain 24hr
in
rain mn
in
humidity
%
barometer
mb
20260506100011 46 130 3.0 8.0 0.11 1.26 0.55 93 1008.3
20260506094509 46 87 1.0 6.0 0.11 1.24 0.52 93 1008.5
20260506093008 46 108 2.0 8.0 0.11 1.21 0.50 93 1008.3
20260506091514 47 86 3.0 8.0 0.11 1.19 0.48 93 1008.2
20260506090018 47 109 2.0 4.0 0.08 1.15 0.44 94 1008.2
20260506084510 48 119 1.0 5.0 0.07 1.13 0.42 94 1008.0
20260506083008 48 97 1.0 7.0 0.05 1.10 0.39 94 1007.8
20260506081510 48 103 0.0 3.0 0.04 1.08 0.37 94 1008.1
20260506073010 48 92 2.0 8.0 0.08 1.04 0.34 94 1008.1
20260506071511 48 147 2.0 5.0 0.09 1.04 0.33 94 1008.1
20260506061509 48 87 1.0 4.0 0.08 0.97 0.24 94 1008.2
20260506044513 49 137 1.0 2.0 0.10 1.02 0.10 94 1009.1
20260506043024 49 137 0.0 2.0 0.10 1.00 0.08 94 1008.9
20260506041512 49 137 0.0 0.0 0.05 0.95 0.03 93 1008.8
20260506040012 49 137 0.0 2.0 0.04 0.93 0.00 94 1008.9
20260506034512 49 137 0.0 2.0 0.07 0.96 0.93 93 1008.8
20260506033017 49 137 1.0 2.0 0.08 0.94 0.91 93 1008.7
20260506031510 49 137 0.0 2.0 0.09 0.94 0.91 93 1009.1
20260506030010 49 137 0.0 2.0 0.07 0.92 0.89 93 1009.3
20260506024530 49 74 0.0 2.0 0.04 0.89 0.86 93 1009.3
20260506023011 49 71 0.0 0.0 0.02 0.86 0.83 93 1009.5
20260506021511 49 352 0.0 0.0 0.02 0.85 0.82 93 1009.4
20260506020012 49 352 0.0 0.0 0.03 0.86 0.82 93 1009.4
20260506014512 49 352 0.0 0.0 0.04 0.86 0.82 93 1009.3
20260506013012 49 352 0.0 0.0 0.05 0.85 0.81 93 1009.6
20260506011512 49 352 0.0 0.0 0.08 0.84 0.80 93 1009.7
20260506010012 49 352 0.0 1.0 0.09 0.83 0.79 92 1009.4
20260506004510 49 352 0.0 2.0 0.11 0.82 0.78 92 1009.4
20260506003012 49 352 0.0 2.0 0.11 0.80 0.76 92 1009.5
20260506001515 49 352 0.0 3.0 0.09 0.76 0.72 92 1009.3
20260506000010 50 113 0.0 0.0 0.08 0.74 0.70 92 1009.2
20260505234517 50 113 0.0 0.0 0.09 0.71 0.67 92 1009.2
20260505233027 50 113 0.0 1.0 0.09 0.69 0.65 91 1008.8
20260505231525 50 113 1.0 4.0 0.10 0.67 0.63 91 1008.5
20260505230025 50 53 1.0 4.0 0.13 0.66 0.62 91 1008.9
20260505224520 50 25 3.0 6.0 0.13 0.62 0.58 91 1008.9
20260505223026 51 57 1.0 4.0 0.17 0.60 0.56 92 1008.9
20260505221512 51 13 2.0 10.0 0.18 0.57 0.52 92 1008.8
20260505220025 52 12 3.0 8.0 0.20 0.52 0.49 91 1008.9
20260505214531 53 322 1.0 8.0 0.20 0.49 0.45 91 1008.6
20260505213024 53 259 1.0 9.0 0.16 0.43 0.39 91 1008.1
20260505211525 53 335 2.0 11.0 0.13 0.39 0.35 90 1008.1
20260505210021 54 323 5.0 13.0 0.07 0.33 0.29 89 1007.8
20260505204517 54 281 2.0 13.0 0.03 0.29 0.25 88 1007.4
20260505203026 55 248 4.0 10.0 0.01 0.27 0.23 86 1007.0
20260505201528 56 294 1.0 13.0 0.00 0.26 0.22 84 1007.2
20260505200008 57 289 4.0 11.0 0.00 0.26 0.22 80 1007.3
20260505194510 57 323 2.0 9.0 0.00 0.26 0.22 78 1007.1
20260505193012 58 314 2.0 11.0 0.00 0.26 0.22 76 1006.8
20260505191517 59 267 1.0 12.0 0.00 0.26 0.22 77 1006.7
20260505190019 58 261 5.0 16.0 0.00 0.26 0.22 75 1007.0
20260505184514 61 272 5.0 13.0 0.00 0.26 0.22 71 1006.9
20260505183012 62 254 5.0 14.0 0.00 0.26 0.22 70 1006.5
20260505181508 62 303 5.0 16.0 0.00 0.26 0.22 70 1006.4
20260505180015 62 266 5.0 16.0 0.00 0.26 0.22 70 1006.2
20260505174512 63 262 4.0 18.0 0.00 0.26 0.22 69 1006.0
20260505173024 63 333 6.0 17.0 0.00 0.26 0.22 70 1006.1
20260505171511 59 300 2.0 14.0 0.00 0.26 0.22 75 1006.1
20260505170018 58 304 7.0 17.0 0.00 0.26 0.22 72 1006.2
20260505164514 60 325 5.0 15.0 0.00 0.26 0.22 70 1005.9
20260505163016 61 284 7.0 16.0 0.00 0.26 0.22 69 1005.4
20260505161517 59 254 5.0 14.0 0.00 0.26 0.22 72 1005.4
20260505153014 60 337 7.0 17.0 0.00 0.26 0.22 69 1005.3
20260505151511 60 352 5.0 16.0 0.00 0.26 0.22 69 1004.7
20260505124532 67 259 4.0 12.0 0.00 0.26 0.22 61 1002.9
20260505123031 67 191 6.0 15.0 0.00 0.26 0.22 61 1002.8
20260505121534 67 292 5.0 14.0 0.00 0.26 0.22 62 1002.7
20260505120037 66 260 7.0 16.0 0.00 0.26 0.22 62 1002.4
20260505114521 66 258 5.0 11.0 0.00 0.26 0.22 62 1002.3
20260505113015 66 284 7.0 13.0 0.00 0.26 0.22 63 1002.3
20260505111528 65 276 3.0 13.0 0.00 0.26 0.22 66 1002.1
20260505101504 63 260 7.0 14.0 0.00 0.26 0.22 70 1001.4